Date,TemperatureHighF,TemperatureAvgF,TemperatureLowF,DewpointHighF,DewpointAvgF,DewpointLowF,HumidityHigh,HumidityAvg,HumidityLow,PressureMaxIn,PressureMinIn,WindSpeedMaxMPH,WindSpeedAvgMPH,GustSpeedMaxMPH,PrecipitationSumIn
2013-1-1,43.1,38.5,35.2,39.8,31.6,15.1,93,77,39,29.89,29.67,22,3,22,0.25
2013-1-2,35.9,32.5,29.1,34.1,26.9,22.1,93,80,65,30.00,29.73,19,1,19,0.03
2013-1-3,39.9,31.8,28.7,23.8,20.9,14.1,79,65,37,30.05,29.95,20,2,20,0.00
2013-1-4,35.0,28.8,23.9,20.5,19.0,16.7,74,67,53,30.15,30.01,30,4,30,0.00
2013-1-5,45.1,35.1,26.3,28.4,20.6,17.4,76,57,34,30.22,29.98,26,2,26,0.01
2013-1-6,41.9,36.9,30.3,30.8,28.6,26.5,88,72,60,29.99,29.85,20,3,20,0.00
2013-1-7,45.7,35.3,27.3,28.5,23.0,20.6,77,62,39,30.23,29.99,27,2,27,0.00
2013-1-8,50.8,37.3,25.7,30.3,25.3,21.4,90,64,34,30.25,30.13,12,1,12,0.00
2013-1-9,53.5,41.1,31.0,47.6,35.4,26.8,88,80,54,30.24,30.15,17,1,18,0.00
2013-1-10,55.6,48.0,39.8,36.9,31.6,21.3,83,56,29,30.34,30.16,10,1,10,0.00
2013-1-11,46.7,44.1,38.0,46.2,36.3,30.0,98,75,55,30.17,29.91,13,2,13,0.05
2013-1-12,71.3,50.5,42.8,59.3,48.8,42.3,99,95,60,29.93,29.82,11,0,11,0.01
2013-1-13,69.3,59.9,55.9,56.1,54.4,51.9,91,82,55,29.83,29.72,15,3,15,0.00
2013-1-14,60.7,50.4,40.6,55.5,48.4,39.5,97,93,80,30.02,29.76,14,1,14,0.77
2013-1-15,41.6,38.9,35.5,41.0,38.0,34.7,98,96,96,30.03,29.86,13,3,13,1.71
2013-1-16,48.5,37.5,34.7,47.4,36.6,33.9,98,96,86,29.86,29.72,18,1,18,0.42
2013-1-17,42.9,38.3,29.7,40.5,36.2,27.5,97,92,87,30.00,29.78,11,1,11,0.71
2013-1-18,36.8,29.6,25.1,27.7,23.0,19.0,92,77,55,30.33,30.00,10,0,10,0.83
2013-1-19,46.1,28.3,18.6,31.0,21.7,16.7,95,79,46,30.26,29.92,13,1,13,0.04
2013-1-20,48.8,40.7,31.0,30.3,23.9,16.7,76,53,31,29.92,29.79,24,5,24,0.00
2013-1-21,43.1,32.4,23.9,23.5,16.4,5.7,66,52,30,29.86,29.67,29,4,29,0.00
2013-1-22,23.8,21.2,17.3,6.2,4.5,2.3,53,48,43,29.83,29.77,31,7,31,0.00
2013-1-24,22.2,18.2,12.9,5.9,2.1,-0.1,63,49,39,30.35,30.06,33,8,33,0.00
2013-1-25,32.2,18.2,13.1,30.4,11.9,2.0,95,77,49,30.32,29.86,21,2,21,0.00
2013-1-26,34.6,28.6,23.6,30.1,23.3,17.2,92,80,63,30.22,29.86,28,7,29,0.19
2013-1-27,34.6,25.2,17.0,25.2,18.3,13.6,89,75,60,30.36,30.22,10,1,10,0.02
2013-1-28,60.9,42.8,30.7,45.9,36.3,25.3,96,79,56,30.23,29.93,17,2,17,0.11
2013-1-29,67.6,53.0,46.8,51.2,46.8,44.2,94,80,50,29.96,29.73,19,4,19,0.00
2013-1-30,63.5,59.1,45.7,58.7,55.3,41.5,98,87,82,29.74,29.12,36,10,36,1.96
2013-1-31,45.5,32.0,28.5,41.6,22.4,15.4,88,68,53,29.72,29.15,0,0,0,0.05
2013-2-1,33.8,20.5,14.1,28.2,8.6,0.6,92,60,44,30.21,29.58,31,4,31,0.03
2013-2-2,32.4,20.8,10.2,25.9,13.2,3.7,96,73,46,30.19,29.80,14,2,14,0.01
2013-2-3,33.8,28.5,25.3,26.7,22.8,17.5,96,80,69,29.82,29.64,29,4,30,0.11
2013-2-4,37.8,28.7,20.5,24.5,18.5,12.5,76,65,54,29.94,29.73,22,4,24,0.02
2013-2-5,44.1,38.1,35.2,33.5,30.4,24.3,89,74,63,29.75,29.66,22,5,22,0.02
2013-2-6,50.4,41.1,34.4,33.3,26.5,20.9,90,58,32,30.07,29.73,24,3,25,0.00
2013-2-7,35.8,33.2,30.9,31.7,28.6,22.0,95,84,59,30.14,29.88,11,2,12,0.05
2013-2-8,44.8,34.3,30.7,40.8,30.2,22.6,98,86,63,29.90,29.63,36,7,40,0.31
2013-2-9,45.5,34.0,24.8,23.0,15.2,7.7,73,49,26,30.16,29.86,32,6,34,0.01
2013-2-10,49.1,33.2,26.6,33.0,15.0,9.8,89,48,31,30.23,29.96,19,1,24,0.07
2013-2-11,57.5,41.3,35.0,51.5,37.6,19.2,98,88,36,29.96,29.67,28,2,30,0.05
2013-2-12,53.8,41.4,35.6,24.9,22.0,17.0,61,47,25,29.86,29.70,25,6,26,0.00
2013-2-13,41.5,38.6,33.5,40.3,33.7,22.5,97,83,48,29.72,29.38,19,2,25,0.26
2013-2-14,49.1,34.0,29.0,29.2,24.8,20.8,84,70,33,29.83,29.63,15,0,19,0.00
2013-2-15,53.5,38.1,29.5,35.5,29.4,25.8,89,73,38,29.87,29.69,0,0,0,0.00
2013-2-16,32.9,29.6,21.6,27.4,19.7,10.8,80,67,47,29.77,29.67,0,0,0,0.00
2013-2-17,25.8,17.9,13.8,15.5,5.5,-0.7,78,58,41,30.05,29.74,0,0,0,0.00
2013-2-18,50.5,31.4,17.7,25.6,12.5,3.8,62,46,31,30.18,29.90,0,0,0,0.00
2013-2-19,47.3,39.2,32.2,39.9,27.7,10.0,95,66,31,29.90,29.56,0,0,0,0.04
2013-2-20,38.5,29.2,23.9,15.2,11.0,6.8,57,47,28,29.98,29.74,0,0,0,0.00
2013-2-21,46.2,26.3,20.3,15.8,12.0,10.6,67,56,26,30.04,29.92,0,0,0,0.00
2013-2-22,37.5,30.2,27.6,30.5,26.7,15.8,96,88,41,30.07,29.91,0,0,0,0.10
2013-2-23,51.4,34.8,30.1,43.0,32.7,29.0,98,93,71,29.93,29.60,0,0,0,0.09
2013-2-24,50.7,41.4,33.8,39.9,31.0,19.5,94,69,31,29.84,29.58,0,0,0,0.00
2013-2-25,40.1,31.1,26.1,25.0,21.0,19.2,77,66,54,29.96,29.84,0,0,0,0.00
2013-2-26,37.6,32.1,29.0,37.0,24.2,19.0,98,74,61,29.93,29.39,0,0,0,0.64
2013-2-27,42.3,37.5,34.9,37.0,34.4,29.9,98,89,65,29.53,29.38,0,0,0,0.00
2013-2-28,36.6,32.5,30.4,31.5,26.1,23.0,88,77,61,29.64,29.48,0,0,0,0.00
2013-3-1,36.3,32.5,30.4,26.8,24.1,21.1,83,71,60,29.71,29.60,0,0,0,0.01
2013-3-2,30.4,28.6,25.8,21.5,19.1,15.0,75,67,59,29.72,29.66,0,0,0,0.00
2013-3-3,28.8,24.2,22.2,17.6,14.6,11.7,74,67,58,29.81,29.71,0,0,0,0.00
2013-3-4,43.9,26.9,20.6,14.9,12.3,7.9,72,56,25,29.92,29.80,0,0,0,0.00
2013-3-5,45.4,34.2,31.0,32.7,25.0,13.3,97,70,44,29.85,29.39,0,0,0,0.47
2013-3-6,33.7,30.9,26.7,32.1,26.8,20.7,97,85,70,29.91,29.39,0,0,0,0.12
2013-3-7,33.8,31.3,29.8,26.5,25.5,22.4,85,79,63,30.08,29.90,0,0,0,0.01
2013-3-8,43.1,33.6,30.9,25.0,23.3,19.8,75,66,47,30.14,30.02,0,0,0,0.00
2013-3-9,58.6,37.3,26.7,29.9,24.2,21.4,84,62,25,30.15,30.01,0,0,0,0.00
2013-3-10,62.3,46.4,37.9,33.3,27.6,24.1,58,48,31,30.05,29.91,0,0,0,0.00
2013-3-11,54.1,49.7,45.2,50.0,37.0,25.9,94,62,46,29.94,29.61,0,0,0,0.26
2013-3-12,51.7,47.9,36.0,50.9,44.0,28.3,98,87,54,29.78,29.47,0,0,0,0.78
2013-3-13,38.0,34.8,25.7,31.0,25.6,14.8,90,69,45,29.97,29.74,0,0,0,0.01
2013-3-14,43.2,30.8,22.5,16.6,14.5,10.8,74,53,30,30.09,29.94,0,0,0,0.00
2013-3-15,58.9,43.3,30.9,34.8,24.9,13.4,63,49,35,29.97,29.65,0,0,0,0.00
2013-3-16,70.4,54.7,42.1,52.3,42.7,32.9,86,66,41,29.65,29.37,0,0,0,0.05
2013-3-17,54.4,47.7,33.1,48.7,43.6,32.3,97,86,80,29.94,29.58,0,0,0,0.39
2013-3-18,33.1,31.6,28.8,32.3,30.8,28.1,97,97,96,29.97,29.69,0,0,0,0.31
2013-3-19,54.2,38.5,32.1,39.6,28.9,-0.4,99,75,14,29.82,29.62,0,0,0,0.01
2013-3-20,49.4,36.1,29.5,27.9,10.0,2.6,85,34,19,29.86,29.58,0,0,0,0.00
2013-3-21,30.1,25.3,20.5,25.6,17.0,8.6,83,71,48,29.81,29.56,0,0,0,0.00
2013-3-22,44.8,29.9,16.7,15.0,10.8,7.1,68,47,27,29.89,29.76,0,0,0,0.00
2013-3-23,51.9,35.3,30.0,27.7,17.1,12.9,63,47,32,29.84,29.69,0,0,0,0.00
2013-3-24,39.6,33.0,28.0,30.2,26.0,19.6,97,78,46,29.70,29.35,0,0,0,0.11
2013-3-25,35.2,28.9,27.2,29.7,26.4,22.5,97,91,64,29.59,29.32,0,0,0,0.43
2013-3-26,36.6,31.5,30.3,28.8,24.7,23.1,83,76,64,29.92,29.59,0,0,0,0.16
2013-3-27,40.1,31.6,28.5,27.0,24.2,20.7,82,74,52,30.04,29.92,0,0,0,0.02
2013-3-28,43.3,32.6,31.3,26.4,23.2,19.6,80,68,43,30.08,29.99,0,0,0,0.00
2013-3-29,55.0,36.9,28.2,27.2,22.8,21.0,79,59,28,30.12,29.96,0,0,0,0.00
2013-3-30,59.9,41.0,29.8,34.5,28.2,25.3,90,64,27,30.04,29.82,0,0,0,0.00
2013-3-31,55.4,48.1,43.3,49.9,35.7,26.6,98,65,43,29.82,29.55,0,0,0,0.45
2013-4-1,54.8,46.2,36.8,45.2,37.4,25.6,88,72,52,29.78,29.59,0,0,0,0.02
2013-4-2,42.3,34.9,30.9,26.1,20.6,11.6,65,56,35,29.95,29.77,0,0,0,0.00
2013-4-3,51.6,38.8,30.0,18.0,13.4,7.4,54,36,20,30.12,29.95,0,0,0,0.00
2013-4-4,38.6,33.4,29.7,32.2,19.7,7.4,98,62,31,30.14,29.79,0,0,0,0.10
2013-4-5,56.6,41.8,32.2,41.1,33.1,26.1,99,77,35,29.82,29.70,0,0,0,0.66
2013-4-6,63.4,45.1,34.9,35.0,28.7,26.1,76,54,27,30.00,29.82,0,0,0,0.00
2013-4-7,67.8,54.5,39.3,44.0,36.9,26.4,72,52,38,29.96,29.78,0,0,0,0.00
2013-4-8,74.6,57.0,45.8,50.9,44.0,41.0,86,63,34,29.89,29.73,0,0,0,0.00
2013-4-9,80.7,63.5,0.0,53.5,49.4,-12.0,80,62,33,29.90,29.75,20,2,24,0.00
2013-4-10,84.7,70.6,56.6,56.5,52.2,40.9,82,56,22,29.82,29.62,21,4,25,0.00
2013-4-11,80.7,68.0,58.9,59.3,53.9,50.0,82,63,35,29.65,29.42,22,3,27,0.00
2013-4-12,69.3,61.3,51.7,62.1,51.6,34.7,97,74,36,29.59,29.33,0,0,0,0.92
2013-4-13,67.9,52.3,46.2,38.4,33.2,26.8,67,50,23,29.76,29.58,0,0,0,0.00
2013-4-14,72.5,58.2,44.9,42.7,34.3,30.1,63,43,26,29.86,29.74,0,0,0,0.00
2013-4-15,61.8,52.9,48.8,52.1,48.9,41.4,97,87,47,30.00,29.75,0,0,0,0.52
2013-4-16,76.5,58.6,53.5,57.9,53.7,51.9,96,86,50,30.04,29.87,0,0,0,0.00
2013-4-17,75.6,64.5,58.1,60.0,57.1,55.0,97,78,55,29.97,29.86,0,0,0,0.12
2013-4-18,72.7,63.3,59.8,59.6,55.8,50.8,90,77,48,29.89,29.67,0,0,0,0.00
2013-4-19,66.9,61.6,43.8,62.2,56.2,33.8,96,83,69,29.67,29.41,0,0,0,1.07
2013-4-20,56.7,43.7,36.5,34.5,29.2,22.4,72,58,30,30.09,29.64,0,0,0,0.00
2013-4-21,55.4,42.9,36.6,32.8,26.2,22.6,67,52,38,30.27,30.09,0,0,0,0.00
2013-4-22,57.2,45.5,33.8,33.0,28.1,19.3,80,54,25,30.25,30.06,0,0,0,0.00
2013-4-23,69.3,51.4,40.8,46.6,38.3,32.8,80,63,29,30.08,29.82,0,0,0,0.00
2013-4-24,71.8,59.0,47.7,57.7,49.7,42.1,91,73,37,29.85,29.64,0,0,0,0.12
2013-4-25,63.5,46.2,35.8,42.4,32.1,18.5,82,63,20,30.08,29.84,0,0,0,0.00
2013-4-26,65.0,50.6,39.8,36.7,29.8,25.9,70,46,27,30.19,30.07,0,0,0,0.00
2013-4-27,66.6,55.5,49.8,50.0,41.7,34.9,87,61,38,30.10,29.99,0,0,0,0.01
2013-4-28,53.2,51.3,48.8,51.5,48.5,47.2,99,90,85,29.99,29.79,0,0,0,0.41
2013-4-29,66.0,51.9,47.9,56.4,49.9,47.6,100,94,62,29.84,29.72,0,0,0,0.02
2013-4-30,68.3,57.3,54.1,55.0,53.9,51.4,98,89,61,29.96,29.76,0,0,0,0.00
2013-5-1,66.0,55.8,52.3,54.0,50.9,42.5,97,85,51,30.12,29.94,0,0,0,0.02
2013-5-2,65.5,54.1,49.8,52.1,44.4,33.9,89,70,53,30.12,30.01,0,0,0,0.00
2013-5-3,59.9,51.3,47.7,47.7,44.3,39.5,89,77,58,30.06,29.95,0,0,0,0.00
2013-5-4,59.5,47.9,42.8,45.8,40.8,38.3,86,77,53,29.97,29.85,0,0,0,0.00
2013-5-5,51.3,48.4,43.8,48.5,41.5,27.7,97,78,53,29.89,29.77,0,0,0,0.03
2013-5-6,54.7,50.2,48.8,53.8,49.4,47.8,98,97,95,29.78,29.63,0,0,0,0.05
2013-5-7,58.9,52.8,47.3,53.3,51.8,46.3,100,97,73,29.71,29.63,0,0,0,0.03
2013-5-8,58.3,48.6,46.1,53.2,48.1,45.3,100,98,81,29.80,29.67,0,0,0,0.01
2013-5-9,75.8,56.9,49.2,56.0,51.1,48.1,99,84,42,29.82,29.75,0,0,0,0.02
2013-5-10,79.8,59.9,52.0,60.0,54.0,50.3,98,83,45,29.81,29.67,0,0,0,0.01
2013-5-11,72.0,59.5,56.3,61.6,58.0,50.5,100,95,61,29.67,29.52,0,0,0,0.01
2013-5-12,58.0,52.2,45.2,51.0,41.7,28.9,85,70,35,29.84,29.59,0,0,0,0.08
2013-5-13,57.5,45.6,37.0,33.1,29.8,24.6,81,55,29,29.96,29.82,0,0,0,0.01
2013-5-14,70.6,45.8,34.1,45.1,34.6,29.4,94,69,29,30.02,29.75,0,0,0,0.06
2013-5-15,86.1,61.7,50.5,60.0,49.3,44.7,90,67,30,29.78,29.61,0,0,0,0.05
2013-5-16,80.3,68.4,62.9,58.5,54.9,49.6,75,63,41,29.75,29.62,0,0,0,0.02
2013-5-17,81.6,64.3,57.8,63.7,56.8,54.4,93,78,43,29.84,29.72,0,0,0,0.00
2013-5-18,66.3,61.7,59.9,63.4,60.4,59.0,99,96,85,29.91,29.80,0,0,0,0.05
2013-5-19,67.9,62.0,60.4,65.4,61.4,60.4,100,98,89,29.88,29.78,0,0,0,0.04
2013-5-20,80.1,67.6,61.2,66.0,63.3,60.3,100,87,60,29.85,29.72,0,0,0,0.05
2013-5-21,87.2,66.5,56.3,66.5,61.4,56.0,100,87,43,29.80,29.64,0,0,0,0.45
2013-5-22,85.5,64.5,57.5,67.7,60.3,56.7,99,88,38,29.71,29.62,0,0,0,0.11
2013-5-23,79.0,63.3,59.3,64.0,60.1,57.0,99,91,51,29.68,29.52,0,0,0,0.67
2013-5-24,59.6,55.5,47.4,57.0,48.8,33.7,92,79,45,30.01,29.58,0,0,0,0.01
2013-5-25,65.8,48.9,40.9,39.1,33.3,26.6,71,57,27,30.08,29.97,0,0,0,0.00
2013-5-26,71.1,54.5,49.1,42.0,39.5,33.5,76,59,27,30.03,29.94,0,0,0,0.00
2013-5-27,76.3,56.5,49.4,57.4,44.6,37.6,83,65,43,30.05,29.88,0,0,0,0.00
2013-5-28,82.8,63.6,56.3,62.7,56.8,53.4,95,80,37,29.95,29.84,0,0,0,0.00
2013-5-29,85.7,68.3,59.5,63.2,59.8,54.6,96,77,38,29.94,29.84,0,0,0,0.00
2013-5-30,86.3,67.9,59.0,64.0,59.6,48.8,95,77,29,29.99,29.88,0,0,0,0.00
2013-5-31,83.4,67.4,59.0,64.3,59.7,56.7,95,78,47,29.94,29.81,0,0,0,0.00
2013-6-1,84.0,68.8,61.3,67.5,61.1,58.8,93,78,50,29.83,29.70,0,0,0,0.00
2013-6-2,75.4,68.5,64.5,67.3,64.1,60.7,96,86,73,29.72,29.63,0,0,0,0.15
2013-6-3,78.1,65.5,61.2,65.3,61.6,56.1,100,89,57,29.74,29.61,0,0,0,0.03
2013-6-4,79.4,62.2,53.3,61.8,56.2,52.1,98,83,46,29.85,29.74,0,0,0,0.00
2013-6-5,72.0,64.9,59.2,63.3,60.4,57.3,99,86,72,29.89,29.77,0,0,0,0.00
2013-6-6,64.3,62.0,59.5,61.0,60.0,58.9,100,93,83,29.77,29.59,0,0,0,1.62
2013-6-7,59.5,12.2,0.0,59.5,12.2,0.0,100,21,100,29.62,29.43,0,0,0,0.00
2013-6-8,0.0,0.0,0.0,0.0,0.0,0.0,0,0,100,29.89,29.61,0,0,0,0.00
2013-6-9,0.0,0.0,0.0,0.0,0.0,0.0,0,0,100,29.95,29.83,0,0,0,0.00
2013-6-10,0.0,0.0,0.0,0.0,0.0,0.0,0,0,100,29.86,29.64,0,0,0,0.00
2013-6-11,0.0,0.0,0.0,0.0,0.0,0.0,0,0,100,29.74,29.67,0,0,0,0.00
2013-6-12,0.0,0.0,0.0,0.0,0.0,0.0,0,0,100,29.77,29.67,0,0,0,0.00
2013-6-13,0.0,0.0,0.0,0.0,0.0,0.0,0,0,100,29.67,29.42,0,0,0,0.00
2013-6-14,-200.0,0.0,200.0,-99.9,-99.9,-99.9,0,0,100,29.83,29.74,0,-999,0,0.00
2013-6-15,-200.0,0.0,200.0,-99.9,-99.9,-99.9,0,0,100,29.93,29.82,0,-999,0,0.00
2013-6-16,0.0,0.0,0.0,0.0,-68.3,-99.9,0,0,100,29.88,29.79,0,-683,0,0.00
2013-6-17,0.0,0.0,0.0,0.0,-1.4,-99.9,0,0,100,29.84,29.70,0,-14,0,0.00
2013-6-18,0.0,0.0,0.0,0.0,-1.6,-99.9,0,0,100,29.75,29.61,0,-16,0,0.00
2013-6-19,0.0,0.0,0.0,0.0,-0.8,-99.9,0,0,100,29.93,29.71,0,-8,0,0.00
2013-6-20,0.0,0.0,0.0,0.0,-18.7,-99.9,0,0,100,30.04,29.93,0,-187,0,0.00
2013-6-21,-200.0,0.0,200.0,-99.9,-99.9,-99.9,0,0,100,30.07,29.99,0,-999,0,0.00
2013-6-22,0.0,0.0,0.0,0.0,-97.8,-99.9,0,0,100,30.05,29.92,0,-978,0,0.00
2013-6-23,0.0,0.0,0.0,0.0,-17.0,-99.9,0,0,100,30.02,29.91,0,-170,0,0.00
2013-6-24,-200.0,0.0,200.0,-99.9,-99.9,-99.9,0,0,100,30.00,29.88,0,-999,0,0.00
2013-6-25,-200.0,0.0,200.0,-99.9,-99.9,-99.9,0,0,100,29.92,29.87,0,-999,0,0.00
2013-6-27,-200.0,0.0,200.0,-99.9,-99.9,-99.9,0,0,100,29.57,0.00,0,-999,0,0.00
2013-6-28,-200.0,0.0,200.0,-99.9,-99.9,-99.9,0,0,100,29.55,29.35,0,-999,0,0.00
2013-6-29,-200.0,0.0,200.0,-99.9,-99.9,-99.9,0,0,100,29.52,29.39,0,-999,0,0.00
2013-6-30,-200.0,0.0,200.0,-99.9,-99.9,-99.9,0,0,100,29.64,29.50,0,-999,0,0.00
2013-7-1,-200.0,0.0,200.0,-99.9,-99.9,-99.9,0,0,100,29.76,29.61,0,-999,0,0.00
2013-7-2,-200.0,0.0,200.0,-99.9,-99.9,-99.9,0,0,100,29.95,29.75,0,-999,0,0.00
2013-7-3,68.8,16.9,67.1,67.0,-60.5,-99.9,97,23,95,30.02,29.92,2,-749,0,0.63
2013-7-4,80.7,72.2,66.6,69.5,67.4,64.0,97,85,62,30.01,29.89,14,2,19,0.35
2013-7-5,69.9,21.0,66.9,67.2,-48.9,-99.9,97,28,89,30.00,29.93,8,-692,8,0.03
2013-7-14,-200.0,0.0,200.0,-99.9,-99.9,-99.9,0,0,100,30.06,30.06,0,-999,0,0.00
2013-7-20,84.7,45.2,81.4,71.3,-7.1,-99.9,69,36,61,29.81,29.65,10,-422,12,0.06
2013-7-28,78.8,11.6,76.3,65.0,-75.3,-99.9,66,10,61,29.82,29.64,6,-849,0,0.00
2013-7-29,76.8,14.0,74.4,54.0,-71.7,-99.9,48,8,40,30.01,29.75,11,-813,0,0.00
2013-7-30,78.1,12.6,75.6,59.0,-74.2,-99.9,55,8,47,30.05,29.87,6,-836,0,0.00
2013-7-31,-200.0,0.0,200.0,-99.9,-99.9,-99.9,0,0,100,29.96,29.79,0,-999,0,0.00
2013-8-1,79.6,4.8,77.6,65.0,-89.9,-99.9,64,4,61,29.79,29.60,8,-938,0,0.00
2013-8-2,80.5,20.3,74.2,60.0,-58.7,-99.9,55,13,46,29.84,29.66,7,-738,0,0.00
2013-8-3,81.6,15.0,70.9,66.0,-68.2,-99.9,74,12,57,29.82,29.65,8,-805,0,0.00
2013-8-4,78.5,18.4,74.7,58.0,-62.5,-99.9,55,12,46,29.87,29.65,16,-759,0,0.01
2013-8-5,76.7,12.0,73.2,62.0,-74.2,-99.9,66,10,57,29.90,29.71,6,-839,0,0.00
2013-8-6,80.7,15.7,77.0,65.0,-67.5,-99.9,63,12,58,29.82,29.67,8,-801,0,0.00
2013-8-7,77.4,1.6,76.5,67.0,-98.1,-99.9,73,1,73,29.87,29.72,6,-978,0,0.00
2013-8-8,78.8,0.9,78.8,69.0,-98.0,-99.9,71,1,71,29.84,29.73,6,-987,0,0.00
2013-8-9,82.8,17.9,77.9,73.0,-62.1,-99.9,81,16,67,29.84,29.66,11,-777,0,0.00
2013-8-10,85.1,17.9,76.5,70.0,-63.1,-99.9,79,14,55,29.90,29.73,12,-769,0,0.00
2013-8-11,82.4,18.1,73.9,70.0,-61.6,-99.9,83,16,62,29.94,29.73,9,-772,0,0.00
2013-8-12,85.3,21.9,80.7,67.0,-56.5,-99.9,61,14,48,29.89,29.67,10,-736,0,0.00
2013-8-13,79.0,11.4,72.0,68.0,-75.1,-99.9,87,11,65,29.70,29.53,7,-850,0,0.00
2013-8-14,73.5,20.1,67.6,51.0,-57.9,-99.9,53,13,40,29.91,29.62,9,-716,0,0.00
2013-8-15,72.0,18.3,65.3,53.0,-59.8,-99.9,60,14,49,29.96,29.82,6,-735,0,0.00
2013-8-16,73.3,19.1,68.9,58.0,-57.8,-99.9,64,16,54,29.99,29.84,7,-728,0,0.00
2013-8-17,67.9,2.1,67.1,56.0,-95.0,-99.9,66,2,65,30.02,29.91,4,-967,0,0.00
2013-8-18,69.8,2.9,69.3,63.0,-93.1,-99.9,80,3,78,30.02,29.90,6,-957,0,0.00
2013-8-19,76.0,5.4,71.8,67.0,-87.7,-99.9,84,6,70,30.00,29.81,5,-925,0,0.00
2013-8-20,80.1,16.1,72.5,66.0,-65.5,-99.9,79,14,59,30.00,29.83,4,-791,0,0.00
2013-8-21,81.1,13.2,75.1,68.0,-71.8,-99.9,75,12,65,30.03,29.84,8,-830,0,0.00
2013-8-22,83.0,23.5,74.0,67.0,-51.0,-99.9,77,19,54,29.97,29.73,12,-702,0,0.00
2013-8-23,82.0,19.2,74.2,68.0,-60.1,-99.9,77,15,52,29.93,29.67,11,-756,0,0.00
2013-8-24,76.3,27.1,70.9,57.0,-43.8,-99.9,59,18,39,30.12,29.86,8,-634,0,0.00
2013-8-25,76.0,23.9,69.9,60.0,-50.2,-99.9,69,16,43,30.21,30.03,6,-676,0,0.00
2013-8-26,-200.0,0.0,200.0,-99.9,-99.9,-99.9,0,0,100,30.11,29.91,0,-999,0,0.00
2013-8-27,-200.0,0.0,200.0,-99.9,-99.9,-99.9,0,0,100,29.92,29.79,0,-999,0,0.00
2013-8-28,-200.0,0.0,200.0,-99.9,-99.9,-99.9,0,0,100,29.83,29.69,0,-999,0,0.00
2013-8-29,-200.0,0.0,200.0,-99.9,-99.9,-99.9,0,0,100,29.84,29.69,0,-999,0,0.00
2013-8-30,-200.0,0.0,200.0,-99.9,-99.9,-99.9,0,0,100,29.86,29.73,0,-999,0,0.00
2013-8-31,-200.0,0.0,200.0,-99.9,-99.9,-99.9,0,0,100,29.75,29.66,0,-999,0,0.00
2013-9-1,-200.0,0.0,200.0,-99.9,-99.9,-99.9,0,0,100,29.70,29.62,0,-999,0,0.00
2013-9-2,-200.0,0.0,200.0,-99.9,-99.9,-99.9,0,0,100,29.71,29.61,0,-999,0,0.00
2013-9-3,-200.0,0.0,200.0,-99.9,-99.9,-99.9,0,0,100,29.81,29.63,0,-999,0,0.00
2013-9-4,-200.0,0.0,200.0,-99.9,-99.9,-99.9,0,0,100,29.91,29.80,0,-999,0,0.00
2013-9-5,-200.0,0.0,200.0,-99.9,-99.9,-99.9,0,0,100,29.95,29.89,0,-999,0,0.00
2013-9-6,-200.0,0.0,200.0,-99.9,-99.9,-99.9,0,0,100,30.00,29.90,0,-999,0,0.00
2013-9-7,-200.0,0.0,200.0,-99.9,-99.9,-99.9,0,0,100,29.94,29.77,0,-999,0,0.00
2013-9-8,-200.0,0.0,200.0,-99.9,-99.9,-99.9,0,0,100,29.82,29.74,0,-999,0,0.00
2013-9-9,-200.0,0.0,200.0,-99.9,-99.9,-99.9,0,0,100,29.98,29.82,0,-999,0,0.00
2013-9-10,-200.0,0.0,200.0,-99.9,-99.9,-99.9,0,0,100,30.05,29.96,0,-999,0,0.00
2013-9-11,-200.0,0.0,200.0,-99.9,-99.9,-99.9,0,0,100,30.02,29.89,0,-999,0,0.00
2013-9-12,-200.0,0.0,200.0,-99.9,-99.9,-99.9,0,0,100,29.89,29.64,0,-999,0,0.00
2013-9-13,-200.0,0.0,200.0,-99.9,-99.9,-99.9,0,0,100,29.76,29.59,0,-999,0,0.00
2013-9-14,-200.0,0.0,200.0,-99.9,-99.9,-99.9,0,0,100,29.92,29.75,0,-999,0,0.00
2013-9-15,-200.0,0.0,200.0,-99.9,-99.9,-99.9,0,0,100,30.02,29.89,0,-999,0,0.00
2013-9-16,-200.0,0.0,200.0,-99.9,-99.9,-99.9,0,0,100,30.02,29.90,0,-999,0,0.00
2013-9-17,-200.0,0.0,200.0,-99.9,-99.9,-99.9,0,0,100,30.14,30.03,0,-999,0,0.00
2013-9-18,-200.0,0.0,200.0,-99.9,-99.9,-99.9,0,0,100,30.08,29.95,0,-999,0,0.00
2013-9-19,-200.0,0.0,200.0,-99.9,-99.9,-99.9,0,0,100,29.97,29.86,0,-999,0,0.00
2013-9-20,-200.0,0.0,200.0,-99.9,-99.9,-99.9,0,0,100,29.87,29.75,0,-999,0,0.00
2013-9-21,-200.0,0.0,200.0,-99.9,-99.9,-99.9,0,0,100,29.74,29.50,0,-999,0,0.00
2013-9-22,-200.0,0.0,200.0,-99.9,-99.9,-99.9,0,0,100,29.73,29.56,0,-999,0,0.00
2013-9-23,-200.0,0.0,200.0,-99.9,-99.9,-99.9,0,0,100,29.84,29.73,0,-999,0,0.00
2013-9-24,-200.0,0.0,200.0,-99.9,-99.9,-99.9,0,0,100,29.87,29.70,0,-999,0,0.00
2013-9-25,-200.0,0.0,200.0,-99.9,-99.9,-99.9,0,0,100,29.74,29.65,0,-999,0,0.00
2013-9-26,-200.0,0.0,200.0,-99.9,-99.9,-99.9,0,0,100,29.85,29.69,0,-999,0,0.00
2013-9-27,-200.0,0.0,200.0,-99.9,-99.9,-99.9,0,0,100,29.99,29.85,0,-999,0,0.00
2013-9-28,-200.0,0.0,200.0,-99.9,-99.9,-99.9,0,0,100,30.05,29.98,0,-999,0,0.00
2013-9-29,-200.0,0.0,200.0,-99.9,-99.9,-99.9,0,0,100,29.98,29.82,0,-999,0,0.00
2013-9-30,-200.0,0.0,200.0,-99.9,-99.9,-99.9,0,0,100,29.87,29.78,0,-999,0,0.00
2013-10-1,-200.0,0.0,200.0,-99.9,-99.9,-99.9,0,0,100,29.93,29.84,0,-999,0,0.00
2013-10-2,-200.0,0.0,200.0,-99.9,-99.9,-99.9,0,0,100,29.95,29.86,0,-999,0,0.00
2013-10-3,-200.0,0.0,200.0,-99.9,-99.9,-99.9,0,0,100,29.95,29.86,0,-999,0,0.00
2013-10-4,-200.0,0.0,200.0,-99.9,-99.9,-99.9,0,0,100,29.96,29.87,0,-999,0,0.00
2013-10-5,-200.0,0.0,200.0,-99.9,-99.9,-99.9,0,0,100,29.95,29.83,0,-999,0,0.00
2013-10-6,-200.0,0.0,200.0,-99.9,-99.9,-99.9,0,0,100,29.85,29.68,0,-999,0,0.00
2013-10-7,-200.0,0.0,200.0,-99.9,-99.9,-99.9,0,0,100,29.85,29.57,0,-999,0,0.00
2013-10-8,-200.0,0.0,200.0,-99.9,-99.9,-99.9,0,0,100,30.02,29.84,0,-999,0,0.00
2013-10-9,-200.0,0.0,200.0,-99.9,-99.9,-99.9,0,0,100,30.05,29.95,0,-999,0,0.00
2013-10-10,-200.0,0.0,200.0,-99.9,-99.9,-99.9,0,0,100,29.95,29.77,0,-999,0,0.00
2013-10-11,-200.0,0.0,200.0,-99.9,-99.9,-99.9,0,0,100,29.77,29.72,0,-999,0,0.00
2013-10-12,-200.0,0.0,200.0,-99.9,-99.9,-99.9,0,0,100,29.90,29.76,0,-999,0,0.00
2013-10-13,-200.0,0.0,200.0,-99.9,-99.9,-99.9,0,0,100,30.03,29.89,0,-999,0,0.00
2013-10-14,-200.0,0.0,200.0,-99.9,-99.9,-99.9,0,0,100,30.05,29.96,0,-999,0,0.00
2013-10-15,-200.0,0.0,200.0,-99.9,-99.9,-99.9,0,0,100,30.01,29.85,0,-999,0,0.00
2013-10-16,-200.0,0.0,200.0,-99.9,-99.9,-99.9,0,0,100,29.86,29.72,0,-999,0,0.00
2013-10-17,-200.0,0.0,200.0,-99.9,-99.9,-99.9,0,0,100,29.74,29.57,0,-999,0,0.00
2013-10-18,-200.0,0.0,200.0,-99.9,-99.9,-99.9,0,0,100,29.80,29.70,0,-999,0,0.00
2013-10-19,-200.0,0.0,200.0,-99.9,-99.9,-99.9,0,0,100,29.75,29.57,0,-999,0,0.00
2013-10-20,-200.0,0.0,200.0,-99.9,-99.9,-99.9,0,0,100,29.85,29.69,0,-999,0,0.00
2013-10-21,-200.0,0.0,200.0,-99.9,-99.9,-99.9,0,0,100,29.90,29.73,0,-999,0,0.00
2013-10-22,-200.0,0.0,200.0,-99.9,-99.9,-99.9,0,0,100,29.73,29.56,0,-999,0,0.00
2013-10-23,-200.0,0.0,200.0,-99.9,-99.9,-99.9,0,0,100,29.71,29.46,0,-999,0,0.00
2013-10-24,-200.0,0.0,200.0,-99.9,-99.9,-99.9,0,0,100,29.89,29.70,0,-999,0,0.00
2013-10-25,-200.0,0.0,200.0,-99.9,-99.9,-99.9,0,0,100,30.07,29.89,0,-999,0,0.00
2013-10-26,-200.0,0.0,200.0,-99.9,-99.9,-99.9,0,0,100,30.04,29.75,0,-999,0,0.00
2013-10-27,-200.0,0.0,200.0,-99.9,-99.9,-99.9,0,0,100,29.86,29.75,0,-999,0,0.00
2013-10-28,-200.0,0.0,200.0,-99.9,-99.9,-99.9,0,0,100,30.02,29.86,0,-999,0,0.00
2013-10-29,-200.0,0.0,200.0,-99.9,-99.9,-99.9,0,0,100,30.10,30.01,0,-999,0,0.00
2013-10-30,-200.0,0.0,200.0,-99.9,-99.9,-99.9,0,0,100,30.04,29.92,0,-999,0,0.00
2013-10-31,-200.0,0.0,200.0,-99.9,-99.9,-99.9,0,0,100,29.94,29.54,0,-999,0,0.00
2013-11-1,-200.0,0.0,200.0,-99.9,-99.9,-99.9,0,0,100,29.53,29.39,0,-999,0,0.00
2013-11-2,-200.0,0.0,200.0,-99.9,-99.9,-99.9,0,0,100,29.70,29.47,0,-999,0,0.00
2013-11-3,-200.0,0.0,200.0,-99.9,-99.9,-99.9,0,0,100,30.10,29.71,0,-999,0,0.00
2013-11-4,-200.0,0.0,200.0,-99.9,-99.9,-99.9,0,0,100,30.27,30.09,0,-999,0,0.00
2013-11-5,-200.0,0.0,200.0,-99.9,-99.9,-99.9,0,0,100,30.29,30.17,0,-999,0,0.00
2013-11-6,-200.0,0.0,200.0,-99.9,-99.9,-99.9,0,0,100,30.17,29.85,0,-999,0,0.00
2013-11-7,-200.0,0.0,200.0,-99.9,-99.9,-99.9,0,0,100,29.86,29.72,0,-999,0,0.00
2013-11-8,-200.0,0.0,200.0,-99.9,-99.9,-99.9,0,0,100,30.02,29.86,0,-999,0,0.00
2013-11-9,-200.0,0.0,200.0,-99.9,-99.9,-99.9,0,0,100,30.04,29.87,0,-999,0,0.00
2013-11-10,-200.0,0.0,200.0,-99.9,-99.9,-99.9,0,0,100,30.00,29.82,0,-999,0,0.00
2013-11-11,-200.0,0.0,200.0,-99.9,-99.9,-99.9,0,0,100,30.05,29.83,0,-999,0,0.00
2013-11-12,-200.0,0.0,200.0,-99.9,-99.9,-99.9,0,0,100,30.14,29.75,0,-999,0,0.00
2013-11-13,-200.0,0.0,200.0,-99.9,-99.9,-99.9,0,0,100,30.20,30.11,0,-999,0,0.00
2013-11-14,-200.0,0.0,200.0,-99.9,-99.9,-99.9,0,0,100,30.13,29.99,0,-999,0,0.00
2013-11-15,-200.0,0.0,200.0,-99.9,-99.9,-99.9,0,0,100,30.02,29.90,0,-999,0,0.00
2013-11-16,-200.0,0.0,200.0,-99.9,-99.9,-99.9,0,0,100,30.01,29.93,0,-999,0,0.00
2013-11-17,-200.0,0.0,200.0,-99.9,-99.9,-99.9,0,0,100,29.95,29.56,0,-999,0,0.00
2013-11-18,-200.0,0.0,200.0,-99.9,-99.9,-99.9,0,0,100,29.75,29.54,0,-999,0,0.00
2013-11-19,-200.0,0.0,200.0,-99.9,-99.9,-99.9,0,0,100,30.01,29.74,0,-999,0,0.00
2013-11-20,-200.0,0.0,200.0,-99.9,-99.9,-99.9,0,0,100,30.17,30.00,0,-999,0,0.00
2013-11-21,-200.0,0.0,200.0,-99.9,-99.9,-99.9,0,0,100,30.22,30.10,0,-999,0,0.00
2013-11-22,-200.0,0.0,200.0,-99.9,-99.9,-99.9,0,0,100,30.12,29.84,0,-999,0,0.00
2013-11-23,-200.0,0.0,200.0,-99.9,-99.9,-99.9,0,0,100,29.94,29.82,0,-999,0,0.00
2013-11-24,-200.0,0.0,200.0,-99.9,-99.9,-99.9,0,0,100,30.16,29.93,0,-999,0,0.00
2013-11-25,-200.0,0.0,200.0,-99.9,-99.9,-99.9,0,0,100,30.16,30.01,0,-999,0,0.00
2013-11-26,-200.0,0.0,200.0,-99.9,-99.9,-99.9,0,0,100,30.01,29.35,0,-999,0,0.00
2013-11-27,-200.0,0.0,200.0,-99.9,-99.9,-99.9,0,0,100,29.82,29.31,0,-999,0,0.00
2013-11-28,-200.0,0.0,200.0,-99.9,-99.9,-99.9,0,0,100,30.12,29.82,0,-999,0,0.00
2013-11-29,-200.0,0.0,200.0,-99.9,-99.9,-99.9,0,0,100,30.31,30.11,0,-999,0,0.00
2013-11-30,-200.0,0.0,200.0,-99.9,-99.9,-99.9,0,0,100,30.30,30.02,0,-999,0,0.00
2013-12-1,-200.0,0.0,200.0,-99.9,-99.9,-99.9,0,0,100,30.02,29.73,0,-999,0,0.00
2013-12-2,-200.0,0.0,200.0,-99.9,-99.9,-99.9,0,0,100,29.72,29.54,0,-999,0,0.00
2013-12-3,-200.0,0.0,200.0,-99.9,-99.9,-99.9,0,0,100,29.68,29.56,0,-999,0,0.00
2013-12-4,-200.0,0.0,200.0,-99.9,-99.9,-99.9,0,0,100,29.79,29.67,0,-999,0,0.00
2013-12-5,-200.0,0.0,200.0,-99.9,-99.9,-99.9,0,0,100,29.82,29.72,0,-999,0,0.00
2013-12-6,-200.0,0.0,200.0,-99.9,-99.9,-99.9,0,0,100,29.81,29.63,0,-999,0,0.00
2013-12-7,-200.0,0.0,200.0,-99.9,-99.9,-99.9,0,0,100,30.15,29.80,0,-999,0,0.00
2013-12-8,-200.0,0.0,200.0,-99.9,-99.9,-99.9,0,0,100,30.13,29.93,0,-999,0,0.00
2013-12-9,-200.0,0.0,200.0,-99.9,-99.9,-99.9,0,0,100,29.91,29.74,0,-999,0,0.00
2013-12-10,-200.0,0.0,200.0,-99.9,-99.9,-99.9,0,0,100,29.95,29.65,0,-999,0,0.00
2013-12-11,-200.0,0.0,200.0,-99.9,-99.9,-99.9,0,0,100,30.07,29.94,0,-999,0,0.00
2013-12-12,-200.0,0.0,200.0,-99.9,-99.9,-99.9,0,0,100,30.07,29.97,0,-999,0,0.00
2013-12-13,-200.0,0.0,200.0,-99.9,-99.9,-99.9,0,0,100,30.00,29.91,0,-999,0,0.00
2013-12-14,-200.0,0.0,200.0,-99.9,-99.9,-99.9,0,0,100,29.98,29.44,0,-999,0,0.00
2013-12-15,-200.0,0.0,200.0,-99.9,-99.9,-99.9,0,0,100,29.72,29.39,0,-999,0,0.00
2013-12-16,-200.0,0.0,200.0,-99.9,-99.9,-99.9,0,0,100,29.82,29.70,0,-999,0,0.00
2013-12-17,-200.0,0.0,200.0,-99.9,-99.9,-99.9,0,0,100,29.78,29.59,0,-999,0,0.00
2013-12-18,-200.0,0.0,200.0,-99.9,-99.9,-99.9,0,0,100,29.95,29.72,0,-999,0,0.00
2013-12-19,-200.0,0.0,200.0,-99.9,-99.9,-99.9,0,0,100,29.96,29.87,0,-999,0,0.00
2013-12-20,-200.0,0.0,200.0,-99.9,-99.9,-99.9,0,0,100,29.89,29.79,0,-999,0,0.00
2013-12-21,-200.0,0.0,200.0,-99.9,-99.9,-99.9,0,0,100,29.82,29.70,0,-999,0,0.00
2013-12-22,-200.0,0.0,200.0,-99.9,-99.9,-99.9,0,0,100,29.82,29.67,0,-999,0,0.00
2013-12-23,-200.0,0.0,200.0,-99.9,-99.9,-99.9,0,0,100,29.90,29.72,0,-999,0,0.00
2013-12-24,-200.0,0.0,200.0,-99.9,-99.9,-99.9,0,0,100,30.11,29.89,0,-999,0,0.00
2013-12-25,-200.0,0.0,200.0,-99.9,-99.9,-99.9,0,0,100,30.15,29.98,0,-999,0,0.00
2013-12-26,-200.0,0.0,200.0,-99.9,-99.9,-99.9,0,0,100,30.06,29.93,0,-999,0,0.00
2013-12-27,-200.0,0.0,200.0,-99.9,-99.9,-99.9,0,0,100,30.14,30.04,0,-999,0,0.00
2013-12-28,-200.0,0.0,200.0,-99.9,-99.9,-99.9,0,0,100,30.07,29.86,0,-999,0,0.00
2013-12-29,-200.0,0.0,200.0,-99.9,-99.9,-99.9,0,0,100,29.85,29.40,0,-999,0,0.00
2013-12-30,-200.0,0.0,200.0,-99.9,-99.9,-99.9,0,0,100,29.82,29.62,0,-999,0,0.00
2013-12-31,-200.0,0.0,200.0,-99.9,-99.9,-99.9,0,0,100,30.02,29.79,0,-999,0,0.00
2014-1-1,-200.0,0.0,200.0,-99.9,-99.9,-99.9,0,0,100,30.05,29.78,0,-999,0,0.00
2014-1-2,-200.0,0.0,200.0,-99.9,-99.9,-99.9,0,0,100,29.78,29.32,0,-999,0,0.00